FW3814 Weather Reports


time (UTC)temp
C
wind
direction
speed
KPH
gust
KPH
rain 1hr
cm
rain 24hr
cm
rain mn
cm
humidity
%
barometer
mb
20260510084005 13 0 0.0 0.0 0.28 0.36 0.36 86 1013.2
20260510083526 13 0 0.0 0.0 0.23 0.33 0.33 86 1013.1
20260510083005 13 0 0.0 0.0 0.23 0.33 0.33 86 1013.2
20260510082505 13 0 0.0 0.0 0.20 0.30 0.30 86 1013.2
20260510082005 13 0 0.0 0.0 0.18 0.28 0.28 86 1013.2
20260510081505 13 0 0.0 0.0 0.15 0.23 0.23 86 1013.2
20260510081005 13 0 0.0 0.0 0.15 0.23 0.23 86 1013.2
20260510080505 13 0 0.0 0.0 0.10 0.18 0.18 86 1013.2
20260510080005 13 0 0.0 0.0 0.10 0.18 0.18 86 1013.2
20260510075505 13 0 0.0 0.0 0.05 0.15 0.15 86 1013.1
20260510075005 13 0 0.0 0.0 0.03 0.13 0.13 86 1012.9
20260510074505 13 0 0.0 0.0 0.03 0.13 0.13 85 1013.0
20260510074026 13 0 0.0 0.0 0.00 0.10 0.10 85 1012.9
20260510073505 13 0 0.0 0.0 0.00 0.10 0.10 85 1012.9
20260510073005 12 345 1.6 3.2 0.00 0.10 0.10 85 1012.9
20260510072526 12 355 1.6 6.4 0.00 0.10 0.10 85 1012.7
20260510072005 12 2 1.6 6.4 0.00 0.10 0.10 85 1012.9
20260510071526 12 9 1.6 8.0 0.00 0.10 0.10 85 1012.7
20260510071005 12 3 4.8 8.0 0.00 0.10 0.10 84 1012.8
20260510070505 12 353 6.4 9.7 0.00 0.10 0.10 84 1012.5
20260510070026 12 358 6.4 9.7 0.00 0.10 0.10 84 1012.7
20260510065505 12 11 4.8 6.4 0.00 0.10 0.10 84 1012.5
20260510065005 12 359 3.2 6.4 0.00 0.10 0.10 83 1012.8
20260510064505 12 358 4.8 6.4 0.00 0.10 0.10 83 1012.7
20260510064005 12 358 6.4 11.3 0.00 0.10 0.10 83 1012.7
20260510063505 12 2 6.4 11.3 0.00 0.10 0.10 83 1012.7
20260510063026 12 10 6.4 8.0 0.00 0.10 0.10 82 1012.7
20260510062505 12 6 8.0 8.0 0.00 0.10 0.10 82 1012.5
20260510062005 12 2 6.4 8.0 0.00 0.10 0.10 82 1012.5
20260510061526 12 353 4.8 6.4 0.03 0.10 0.10 81 1012.7
20260510061005 13 349 3.2 6.4 0.03 0.10 0.10 81 1012.7
20260510060505 13 356 6.4 16.1 0.03 0.10 0.10 81 1012.5
20260510060006 13 355 4.8 16.1 0.03 0.10 0.10 81 1012.5
20260510055505 13 333 1.6 6.4 0.03 0.10 0.10 80 1012.5
20260510055005 13 286 4.8 9.7 0.03 0.10 0.10 80 1012.4
20260510054505 13 263 3.2 9.7 0.03 0.10 0.10 80 1012.2
20260510054005 13 299 1.6 3.2 0.03 0.10 0.10 80 1012.5
20260510053526 13 321 1.6 3.2 0.03 0.10 0.10 79 1012.2
20260510053026 13 316 1.6 3.2 0.03 0.10 0.10 79 1012.0
20260510052526 13 304 1.6 3.2 0.03 0.10 0.10 78 1012.0
20260510052041 13 315 0.0 1.6 0.03 0.10 0.10 78 1012.1
20260510051505 13 283 1.6 3.2 0.00 0.05 0.05 78 1011.8
20260510051005 13 267 0.0 3.2 0.00 0.05 0.05 77 1011.8
20260510050505 13 101 1.6 4.8 0.00 0.05 0.05 78 1011.9
20260510050005 13 101 1.6 4.8 0.00 0.05 0.05 78 1011.5
20260510045526 13 88 0.0 4.8 0.00 0.05 0.05 77 1011.7
20260510045005 13 58 1.6 3.2 0.00 0.05 0.05 78 1011.5
20260510044526 13 26 1.6 3.2 0.00 0.05 0.05 78 1011.5
20260510044005 13 4 3.2 6.4 0.00 0.05 0.05 78 1011.4
20260510043505 13 9 6.4 11.3 0.00 0.05 0.05 78 1011.5
20260510043005 13 16 9.7 12.9 0.00 0.05 0.05 78 1011.4
20260510042526 13 20 9.7 12.9 0.00 0.05 0.05 79 1011.6
20260510042005 13 25 9.7 12.9 0.00 0.05 0.05 79 1011.5
20260510041505 13 27 11.3 16.1 0.00 0.05 0.05 79 1011.6
20260510041026 13 49 11.3 16.1 0.00 0.05 0.05 79 1011.6
20260510040505 13 55 11.3 12.9 0.00 0.05 0.05 78 1011.6
20260510040005 13 23 8.0 12.9 0.00 0.05 0.05 78 1011.5
20260510035526 13 12 6.4 9.7 0.00 0.05 0.05 78 1011.6
20260510035005 13 9 6.4 8.0 0.00 0.05 0.05 77 1011.5
20260510034505 13 3 6.4 8.0 0.00 0.05 0.05 76 1011.7
20260510034026 13 22 6.4 8.0 0.00 0.05 0.05 76 1011.7
20260510033505 13 41 9.7 12.9 0.00 0.05 0.05 75 1011.8
20260510033005 13 45 11.3 12.9 0.00 0.05 0.05 75 1011.7
20260510032505 14 51 11.3 12.9 0.00 0.05 0.05 75 1011.8
20260510032005 14 49 9.7 11.3 0.00 0.05 0.05 75 1011.7
20260510031505 14 47 8.0 8.0 0.00 0.05 0.05 75 1011.8
20260510031005 14 47 4.8 8.0 0.00 0.05 0.05 76 1011.8
20260510030505 13 42 3.2 6.4 0.00 0.05 0.05 76 1011.9
20260510030005 13 6 3.2 6.4 0.00 0.05 0.05 76 1011.9
20260510025505 14 7 6.4 8.0 0.00 0.05 0.05 76 1012.0
20260510025005 13 12 6.4 8.0 0.00 0.05 0.05 76 1012.1
20260510024505 13 15 8.0 8.0 0.00 0.05 0.05 76 1012.0
20260510024020 13 12 6.4 8.0 0.00 0.05 0.05 76 1012.0
20260510023505 13 8 4.8 6.4 0.00 0.05 0.05 76 1012.2
20260510023005 13 10 6.4 9.7 0.00 0.05 0.05 76 1012.4
20260510022505 13 13 6.4 9.7 0.00 0.05 0.05 76 1012.4
20260510022005 13 12 4.8 6.4 0.00 0.05 0.05 76 1012.5
20260510021505 13 9 4.8 6.4 0.00 0.05 0.05 75 1012.5
20260510021005 13 4 4.8 6.4 0.03 0.05 0.05 75 1012.7
20260510020505 13 2 3.2 4.8 0.03 0.05 0.05 73 1012.7
20260510020005 13 4 1.6 4.8 0.03 0.05 0.05 73 1012.8
20260510015505 13 356 1.6 4.8 0.05 0.05 0.05 72 1012.7
20260510015026 13 355 0.0 1.6 0.05 0.05 0.05 71 1012.9
20260510014505 13 22 0.0 1.6 0.05 0.05 0.05 70 1013.0
20260510014005 13 32 3.2 11.3 0.05 0.05 0.05 70 1013.2
20260510013505 14 43 8.0 12.9 0.05 0.05 0.05 70 1012.9
20260510013005 14 60 9.7 12.9 0.05 0.05 0.05 70 1012.9
20260510012505 14 64 8.0 12.9 0.05 0.05 0.05 69 1013.1
20260510012005 14 61 3.2 9.7 0.05 0.05 0.05 67 1012.9
20260510011505 14 137 3.2 8.0 0.05 0.05 0.05 66 1013.0
20260510011005 15 195 8.0 12.9 0.03 0.03 0.03 66 1013.1
20260510010505 15 237 8.0 12.9 0.03 0.03 0.03 64 1013.2
20260510010026 15 231 3.2 8.0 0.03 0.03 0.03 64 1013.2
20260510005505 15 10 1.6 4.8 0.00 0.00 0.00 64 1013.0
20260510005026 15 14 3.2 6.4 0.00 0.00 0.00 64 1013.0
20260510004505 15 18 4.8 6.4 0.00 0.00 0.00 64 1012.9
20260510004005 15 18 4.8 6.4 0.00 0.00 0.00 63 1012.8
20260510003505 15 18 4.8 6.4 0.00 0.00 0.00 63 1012.8
20260510003005 15 21 3.2 6.4 0.00 0.00 0.00 63 1012.9
20260510002505 15 16 3.2 6.4 0.00 0.00 0.00 63 1012.9
20260510002005 15 16 3.2 6.4 0.00 0.00 0.00 63 1013.0
20260510001505 15 25 3.2 6.4 0.00 0.00 0.00 63 1013.1
20260510001026 15 26 3.2 6.4 0.00 0.00 0.00 63 1013.3
20260510000505 15 0 0.0 0.0 0.00 0.00 0.00 63 1013.2
20260510000005 15 0 0.0 0.0 0.00 0.00 0.00 63 1013.3
20260509235505 15 22 0.0 3.2 0.00 0.00 0.00 63 1013.5
20260509235026 15 22 1.6 3.2 0.00 0.00 0.00 63 1013.5
20260509234505 15 14 3.2 3.2 0.00 0.00 0.00 63 1013.4
20260509234005 15 12 4.8 6.4 0.00 0.00 0.00 63 1013.3
20260509233505 15 13 6.4 6.4 0.00 0.00 0.00 63 1013.4
20260509233005 15 10 6.4 6.4 0.00 0.00 0.00 63 1013.2
20260509232505 15 9 4.8 6.4 0.00 0.00 0.00 62 1013.4
20260509232026 15 8 4.8 6.4 0.00 0.00 0.00 62 1013.5
20260509231506 15 15 4.8 6.4 0.00 0.00 0.00 62 1013.4
20260509230504 15 9 4.8 6.4 0.00 0.00 0.00 61 1013.6
20260509230004 16 9 6.4 6.4 0.00 0.00 0.00 61 1013.4
20260509225504 16 11 6.4 6.4 0.00 0.00 0.00 60 1013.4
20260509225004 16 13 4.8 6.4 0.00 0.00 0.00 60 1013.5
20260509224504 16 17 3.2 6.4 0.00 0.00 0.00 60 1013.4
20260509224004 16 19 1.6 4.8 0.00 0.00 0.00 60 1013.5
20260509223525 16 18 0.0 3.2 0.00 0.00 0.00 60 1013.7
20260509223004 16 0 0.0 0.0 0.00 0.00 0.00 60 1013.6
20260509222504 16 7 0.0 3.2 0.00 0.00 0.00 60 1013.7
20260509222004 16 7 0.0 3.2 0.00 0.00 0.00 60 1013.6
20260509221525 16 0 0.0 0.0 0.00 0.00 0.00 60 1013.7
20260509221004 16 0 0.0 0.0 0.00 0.00 0.00 60 1013.6
20260509220525 16 0 0.0 0.0 0.00 0.00 0.00 59 1013.6
20260509220004 16 0 0.0 0.0 0.00 0.00 0.00 59 1013.5
20260509215504 16 0 0.0 0.0 0.00 0.00 0.00 58 1013.5
20260509215004 16 0 0.0 0.0 0.00 0.00 0.00 57 1013.5
20260509214525 16 0 0.0 0.0 0.00 0.00 0.00 56 1013.4
20260509214004 16 10 0.0 3.2 0.00 0.00 0.00 55 1013.5
20260509213504 16 8 1.6 3.2 0.00 0.00 0.00 54 1013.6
20260509213004 16 8 0.0 3.2 0.00 0.00 0.00 53 1013.5
20260509212504 17 0 0.0 0.0 0.00 0.00 0.00 53 1013.6
20260509212025 17 0 0.0 0.0 0.00 0.00 0.00 53 1013.3
20260509211504 17 0 0.0 0.0 0.00 0.00 0.00 52 1013.5
20260509211032 17 0 0.0 0.0 0.00 0.00 0.00 52 1013.3
20260509210504 17 0 0.0 0.0 0.00 0.00 0.00 52 1013.4
20260509210025 17 0 0.0 0.0 0.00 0.00 0.00 52 1013.6
20260509205504 17 0 0.0 0.0 0.00 0.00 0.00 52 1013.5
20260509205025 17 0 0.0 0.0 0.00 0.00 0.00 52 1013.5
20260509204525 17 0 0.0 0.0 0.00 0.00 0.00 50 1013.5
20260509204004 17 0 0.0 0.0 0.00 0.00 0.00 50 1013.5
20260509203525 17 0 0.0 0.0 0.00 0.00 0.00 50 1013.5
20260509203025 17 0 0.0 0.0 0.00 0.00 0.00 49 1013.5
20260509202504 17 0 0.0 0.0 0.00 0.00 0.00 49 1013.3
20260509202004 17 0 0.0 0.0 0.00 0.00 0.00 49 1013.5
20260509201525 17 0 0.0 0.0 0.00 0.00 0.00 49 1013.5
20260509201004 17 0 0.0 0.0 0.00 0.00 0.00 49 1013.5
20260509200525 17 0 0.0 0.0 0.00 0.00 0.00 48 1013.5
20260509200004 17 0 0.0 0.0 0.00 0.00 0.00 48 1013.4
20260509195504 18 0 0.0 0.0 0.00 0.00 0.00 47 1013.2
20260509195004 18 0 0.0 0.0 0.00 0.00 0.00 47 1013.3
20260509194504 18 0 0.0 0.0 0.00 0.00 0.00 47 1012.9
20260509194019 18 0 0.0 0.0 0.00 0.00 0.00 47 1012.9
20260509193504 18 0 0.0 0.0 0.00 0.00 0.00 46 1013.0
20260509193004 18 0 0.0 0.0 0.00 0.00 0.00 46 1012.9
20260509192504 18 0 0.0 0.0 0.00 0.00 0.00 46 1012.8
20260509192004 18 0 0.0 0.0 0.00 0.00 0.00 45 1012.9
20260509191504 18 0 0.0 0.0 0.00 0.00 0.00 45 1012.8
20260509191004 18 0 0.0 0.0 0.00 0.00 0.00 45 1012.9
20260509190504 18 0 0.0 0.0 0.00 0.00 0.00 46 1012.8
20260509190004 18 0 0.0 0.0 0.00 0.00 0.00 46 1012.9
20260509185525 18 0 0.0 0.0 0.00 0.00 0.00 45 1013.0
20260509185004 19 0 0.0 0.0 0.00 0.00 0.00 46 1013.0
20260509184504 19 0 0.0 0.0 0.00 0.00 0.00 46 1012.9
20260509184004 19 202 0.0 3.2 0.00 0.00 0.00 47 1013.0
20260509183504 19 202 0.0 3.2 0.00 0.00 0.00 47 1012.9
20260509183004 19 0 0.0 0.0 0.00 0.00 0.00 47 1012.9
20260509182504 20 0 0.0 0.0 0.00 0.00 0.00 48 1012.8
20260509182025 20 0 0.0 0.0 0.00 0.00 0.00 47 1012.9
20260509181504 20 0 0.0 0.0 0.00 0.00 0.00 45 1012.8
20260509181004 21 0 0.0 0.0 0.00 0.00 0.00 44 1012.7
20260509180525 21 0 0.0 0.0 0.00 0.00 0.00 42 1012.9
20260509180004 21 0 0.0 0.0 0.00 0.00 0.00 41 1012.8
20260509175525 21 0 0.0 0.0 0.00 0.00 0.00 41 1012.8
20260509175004 21 0 0.0 0.0 0.00 0.00 0.00 41 1012.8
20260509174504 21 0 0.0 0.0 0.00 0.00 0.00 40 1012.7
20260509174004 21 0 0.0 0.0 0.00 0.00 0.00 40 1012.7
20260509173504 22 0 0.0 0.0 0.00 0.00 0.00 40 1012.8
20260509173004 22 0 0.0 0.0 0.00 0.00 0.00 40 1012.8
20260509172504 22 275 0.0 3.2 0.00 0.00 0.00 40 1012.8
20260509172004 22 268 0.0 3.2 0.00 0.00 0.00 40 1012.9
20260509171504 22 305 0.0 3.2 0.00 0.00 0.00 36 1012.7
20260509171025 22 315 0.0 3.2 0.00 0.00 0.00 35 1012.8
20260509170504 23 315 0.0 1.6 0.00 0.00 0.00 36 1012.9
20260509170004 23 332 0.0 1.6 0.00 0.00 0.00 36 1012.7
20260509165504 23 328 0.0 1.6 0.00 0.00 0.00 35 1012.9
20260509165025 23 295 0.0 1.6 0.00 0.00 0.00 35 1012.8
20260509164504 23 298 0.0 1.6 0.00 0.00 0.00 35 1012.9
20260509164004 23 302 3.2 6.4 0.00 0.00 0.00 35 1012.9
20260509163504 23 279 4.8 8.0 0.00 0.00 0.00 34 1012.9
20260509163025 23 276 4.8 8.0 0.00 0.00 0.00 35 1012.9
20260509162504 23 309 6.4 8.0 0.00 0.00 0.00 36 1012.9
20260509162004 23 304 8.0 12.9 0.00 0.00 0.00 35 1013.0
20260509161504 23 273 8.0 12.9 0.00 0.00 0.00 34 1013.0
20260509161025 23 247 6.4 9.7 0.00 0.00 0.00 34 1013.1
20260509160504 23 242 4.8 6.4 0.00 0.00 0.00 35 1013.1
20260509160004 23 280 6.4 11.3 0.00 0.00 0.00 35 1013.1
20260509155504 23 298 9.7 14.5 0.00 0.00 0.00 34 1013.1
20260509155004 23 279 11.3 14.5 0.00 0.00 0.00 35 1013.3
20260509154504 23 268 12.9 17.7 0.00 0.00 0.00 34 1013.3
20260509154025 23 261 11.3 17.7 0.00 0.00 0.00 34 1013.3
20260509153504 23 237 8.0 11.3 0.00 0.00 0.00 36 1013.4
20260509153025 23 216 8.0 12.9 0.00 0.00 0.00 36 1013.2
20260509152504 23 242 9.7 12.9 0.00 0.00 0.00 36 1013.2
20260509152004 23 282 9.7 12.9 0.00 0.00 0.00 37 1013.3
20260509151504 23 286 12.9 16.1 0.00 0.00 0.00 37 1013.2
20260509151004 23 261 11.3 16.1 0.00 0.03 0.00 37 1013.2
20260509150504 23 262 9.7 11.3 0.00 0.03 0.00 37 1013.2
20260509150004 23 258 8.0 14.5 0.00 0.05 0.00 37 1013.3
20260509145504 23 221 4.8 14.5 0.00 0.10 0.00 37 1013.2
20260509145025 23 179 6.4 11.3 0.00 0.13 0.00 38 1013.1
20260509144504 23 180 9.7 12.9 0.00 0.15 0.00 37 1013.3
20260509144004 23 201 9.7 12.9 0.00 0.18 0.00 37 1013.2
20260509143504 23 210 8.0 16.1 0.00 0.18 0.00 39 1013.1
20260509143004 23 236 9.7 16.1 0.00 0.20 0.00 39 1013.3
20260509142504 23 257 12.9 16.1 0.00 0.23 0.00 38 1013.2
20260509142004 23 238 9.7 16.1 0.00 0.23 0.00 39 1013.3
20260509141504 23 205 8.0 16.1 0.00 0.28 0.00 40 1013.4
20260509141004 23 157 9.7 12.9 0.00 0.33 0.00 40 1013.4
20260509140504 23 158 9.7 11.3 0.00 0.36 0.00 40 1013.4
20260509140005 23 198 11.3 19.3 0.00 0.51 0.00 40 1013.5
20260509135504 23 198 9.7 19.3 0.00 0.86 0.00 40 1013.5
20260509135004 23 258 8.0 16.1 0.00 0.94 0.00 40 1013.6
20260509134504 23 252 9.7 16.1 0.00 0.97 0.00 40 1013.7
20260509134004 23 209 11.3 19.3 0.00 0.97 0.00 40 1013.7
20260509133504 23 213 11.3 19.3 0.00 0.99 0.00 40 1013.9
20260509133004 23 200 6.4 14.5 0.00 0.99 0.00 40 1013.9
20260509132504 23 212 8.0 14.5 0.00 1.04 0.00 40 1013.9
20260509132004 23 268 6.4 14.5 0.00 1.04 0.00 40 1014.0
20260509131525 23 305 6.4 9.7 0.00 1.04 0.00 41 1014.1
20260509131004 23 265 6.4 9.7 0.00 1.04 0.00 41 1014.0
20260509130504 22 220 9.7 17.7 0.00 1.04 0.00 40 1013.9
20260509130004 22 221 12.9 17.7 0.00 1.04 0.00 40 1014.1
20260509125504 22 254 12.9 17.7 0.00 1.04 0.00 40 1014.2
20260509125004 23 263 11.3 17.7 0.00 1.04 0.00 41 1014.2
20260509124504 22 267 9.7 17.7 0.00 1.04 0.00 41 1014.1
20260509124004 22 294 6.4 12.9 0.00 1.04 0.00 41 1014.2
20260509123504 22 267 6.4 17.7 0.00 1.04 0.00 42 1014.1
20260509123004 22 268 11.3 17.7 0.00 1.04 0.00 41 1014.2
20260509122504 22 288 12.9 17.7 0.00 1.04 0.00 41 1014.1
20260509122004 22 270 11.3 17.7 0.00 1.04 0.00 41 1014.1
20260509121504 22 234 8.0 12.9 0.00 1.04 0.00 41 1014.3
20260509121025 22 197 8.0 12.9 0.00 1.04 0.00 41 1014.2
20260509120504 22 228 8.0 12.9 0.00 1.04 0.00 41 1014.3
20260509120025 22 240 6.4 12.9 0.00 1.04 0.00 41 1014.2
20260509115504 22 215 6.4 12.9 0.00 1.04 0.00 42 1014.4
20260509115004 22 186 8.0 12.9 0.00 1.04 0.00 44 1014.3
20260509114504 22 113 8.0 11.3 0.00 1.04 0.00 44 1014.4
20260509114025 22 123 8.0 11.3 0.00 1.04 0.00 44 1014.5
20260509113504 22 151 4.8 8.0 0.00 1.04 0.00 46 1014.5
20260509113004 22 215 4.8 8.0 0.00 1.04 0.00 48 1014.5
20260509112525 22 268 4.8 11.3 0.00 1.04 0.00 48 1014.6
20260509112004 22 279 4.8 11.3 0.00 1.04 0.00 47 1014.7
20260509111504 22 236 6.4 12.9 0.00 1.04 0.00 48 1014.7
20260509111004 22 216 9.7 12.9 0.00 1.04 0.00 49 1014.8
20260509110504 22 229 11.3 12.9 0.00 1.04 0.00 49 1014.9
20260509110025 22 287 11.3 12.9 0.00 1.04 0.00 49 1015.0
20260509105504 22 290 9.7 12.9 0.00 1.04 0.00 50 1015.0
20260509105004 22 264 8.0 12.9 0.00 1.04 0.00 50 1015.2
20260509104504 22 290 4.8 12.9 0.00 1.04 0.00 50 1015.3
20260509104004 21 305 6.4 11.3 0.00 1.04 0.00 50 1015.3
20260509103504 21 297 8.0 11.3 0.00 1.04 0.00 50 1015.3
20260509103004 21 298 6.4 11.3 0.00 1.04 0.00 51 1015.3
20260509102540 21 281 6.4 9.7 0.00 1.04 0.00 51 1015.5
20260509102004 21 263 8.0 11.3 0.00 1.04 0.00 51 1015.5
20260509101525 21 289 8.0 11.3 0.00 1.04 0.00 50 1015.5
20260509101004 21 359 8.0 8.0 0.00 1.04 0.00 50 1015.5
20260509100504 21 40 6.4 8.0 0.00 1.04 0.00 50 1015.6
20260509100005 21 113 6.4 9.7 0.00 1.04 0.00 50 1015.6
20260509095504 21 190 6.4 9.7 0.00 1.04 0.00 51 1015.7
20260509095004 21 195 8.0 9.7 0.00 1.04 0.00 52 1015.7
20260509094525 21 167 6.4 9.7 0.00 1.04 0.00 52 1015.7
20260509094025 21 341 4.8 6.4 0.00 1.04 0.00 53 1015.8
20260509093504 20 353 6.4 9.7 0.00 1.04 0.00 52 1015.8
20260509093025 20 1 6.4 9.7 0.00 1.04 0.00 52 1015.8
20260509092505 20 31 3.2 6.4 0.00 1.04 0.00 54 1015.7
20260509091525 20 357 3.2 6.4 0.00 1.04 0.00 55 1015.7
20260509091025 20 7 1.6 4.8 0.00 1.04 0.00 55 1015.8
20260509090504 20 335 1.6 6.4 0.00 1.04 0.00 55 1015.9
20260509090004 20 322 4.8 6.4 0.00 1.04 0.00 55 1015.7
20260509085504 20 316 3.2 6.4 0.00 1.04 0.00 56 1015.9
20260509085004 20 12 3.2 4.8 0.00 1.04 0.00 58 1015.9
20260509084504 20 39 4.8 6.4 0.00 1.04 0.00 58 1015.9